When you browse on this site, cookies collect data to enhance your experience and personalize the content and advertising you see.
Visit our Privacy Policy to learn more. By continuing to use the site, you agree to this use of cookies and data.
  • In Romania
  • List of Countries
  • For 7 days
  • Water Temperature
  • Satellite Maps
  • Weather Map
  • Weather Widgets
  • user-avatar
    Login

    Hourly Weather Arroyomolinos

    Today, 25 April, Thursday

    Time Temperature Precipitation Wind Pressure Humidity
    00:00 +9°C° 0.9 mm 7 mps 695 mmHg 91%
    01:00 +8°C° 0.2 mm 7 mps 695 mmHg 90%
    02:00 +6°C° 0.2 mm 7 mps 696 mmHg 89%
    03:00 +5°C° 0.2 mm 7 mps 696 mmHg 88%
    04:00 +5°C° 0 mm 7 mps 696 mmHg 88%
    05:00 +4°C° 0 mm 6 mps 696 mmHg 89%
    06:00 +4°C° 0 mm 6 mps 697 mmHg 89%
    07:00 +5°C° 0 mm 7 mps 698 mmHg 79%
    08:00 +7°C° 0 mm 9 mps 698 mmHg 69%
    09:00 +8°C° 0 mm 10 mps 699 mmHg 59%
    10:00 +9°C° 0.1 mm 11 mps 699 mmHg 56%
    11:00 +11°C° 0.1 mm 11 mps 700 mmHg 52%
    12:00 +12°C° 0.1 mm 12 mps 700 mmHg 48%
    13:00 +12°C° 0.1 mm 11 mps 700 mmHg 48%
    14:00 +12°C° 0.1 mm 11 mps 701 mmHg 48%
    15:00 +11°C° 0.1 mm 11 mps 701 mmHg 48%
    16:00 +11°C° 0 mm 10 mps 701 mmHg 49%
    17:00 +10°C° 0 mm 9 mps 702 mmHg 51%
    18:00 +10°C° 0 mm 8 mps 702 mmHg 52%
    19:00 +9°C° 0 mm 7 mps 703 mmHg 59%
    20:00 +7°C° 0 mm 6 mps 704 mmHg 65%
    21:00 +6°C° 0 mm 5 mps 704 mmHg 71%
    22:00 +6°C° 0 mm 4 mps 705 mmHg 74%
    23:00 +5°C° 0 mm 4 mps 705 mmHg 76%

    Tomorrow, 26 April, Friday

    Time Temperature Precipitation Wind Pressure Humidity
    00:00 +5°C° 0 mm 4 mps 706 mmHg 78%
    01:00 +4°C° 0 mm 3 mps 706 mmHg 79%
    02:00 +4°C° 0 mm 3 mps 706 mmHg 80%
    03:00 +4°C° 0 mm 3 mps 706 mmHg 81%
    04:00 +5°C° 0 mm 2 mps 707 mmHg 80%
    05:00 +4°C° 0 mm 2 mps 707 mmHg 80%
    06:00 +4°C° 0 mm 2 mps 708 mmHg 79%
    07:00 +7°C° 0 mm 2 mps 708 mmHg 68%
    08:00 +9°C° 0 mm 3 mps 708 mmHg 58%
    09:00 +11°C° 0 mm 3 mps 709 mmHg 48%
    10:00 +12°C° 0 mm 3 mps 709 mmHg 43%
    11:00 +14°C° 0 mm 2 mps 709 mmHg 39%
    12:00 +15°C° 0 mm 2 mps 709 mmHg 34%
    13:00 +16°C° 0 mm 2 mps 709 mmHg 32%
    14:00 +17°C° 0 mm 2 mps 709 mmHg 31%
    15:00 +18°C° 0 mm 2 mps 709 mmHg 30%
    16:00 +17°C° 0 mm 2 mps 709 mmHg 32%
    17:00 +17°C° 0 mm 2 mps 709 mmHg 34%
    18:00 +17°C° 0 mm 3 mps 709 mmHg 36%
    19:00 +14°C° 0 mm 3 mps 709 mmHg 40%
    20:00 +13°C° 0 mm 3 mps 709 mmHg 45%
    21:00 +11°C° 0 mm 3 mps 710 mmHg 49%
    22:00 +10°C° 0 mm 3 mps 710 mmHg 52%
    23:00 +10°C° 0 mm 2 mps 710 mmHg 54%

    Day after tomorrow, 27 April, Saturday

    Time Temperature Precipitation Wind Pressure Humidity
    00:00 +9°C° 0 mm 2 mps 710 mmHg 57%
    01:00 +9°C° 0 mm 2 mps 710 mmHg 59%
    02:00 +8°C° 0 mm 2 mps 710 mmHg 60%
    03:00 +8°C° 0 mm 2 mps 710 mmHg 62%
    04:00 +8°C° 0 mm 2 mps 710 mmHg 63%
    05:00 +9°C° 0 mm 1 mps 710 mmHg 63%
    06:00 +9°C° 0 mm 1 mps 710 mmHg 64%
    07:00 +10°C° 0 mm 2 mps 710 mmHg 57%
    08:00 +13°C° 0 mm 2 mps 710 mmHg 50%
    09:00 +15°C° 0 mm 2 mps 710 mmHg 44%
    10:00 +16°C° 0 mm 2 mps 710 mmHg 40%
    11:00 +18°C° 0 mm 2 mps 710 mmHg 36%
    12:00 +19°C° 0 mm 2 mps 710 mmHg 33%
    13:00 +20°C° 0 mm 2 mps 710 mmHg 32%
    14:00 +21°C° 0 mm 2 mps 709 mmHg 30%
    15:00 +23°C° 0 mm 2 mps 709 mmHg 29%
    16:00 +22°C° 0 mm 1 mps 709 mmHg 32%
    17:00 +22°C° 0 mm 1 mps 709 mmHg 34%
    18:00 +22°C° 0 mm 1 mps 708 mmHg 37%
    19:00 +20°C° 0 mm 1 mps 709 mmHg 41%
    20:00 +18°C° 0 mm 2 mps 709 mmHg 45%
    21:00 +16°C° 0 mm 2 mps 709 mmHg 50%
    22:00 +14°C° 0 mm 3 mps 709 mmHg 54%
    23:00 +13°C° 0 mm 3 mps 709 mmHg 59%

    28 April, Sunday

    Time Temperature Precipitation Wind Pressure Humidity
    00:00 +13°C° 0 mm 4 mps 709 mmHg 63%
    01:00 +12°C° 0 mm 4 mps 708 mmHg 64%
    02:00 +12°C° 0 mm 4 mps 708 mmHg 65%
    03:00 +11°C° 0 mm 4 mps 708 mmHg 67%
    04:00 +11°C° 0 mm 4 mps 708 mmHg 66%
    05:00 +10°C° 0 mm 4 mps 708 mmHg 66%
    06:00 +10°C° 0 mm 3 mps 707 mmHg 66%
    07:00 +12°C° 0 mm 4 mps 707 mmHg 57%
    08:00 +14°C° 0 mm 4 mps 707 mmHg 48%
    09:00 +17°C° 0 mm 4 mps 707 mmHg 39%
    10:00 +18°C° 0 mm 4 mps 707 mmHg 34%
    11:00 +20°C° 0 mm 3 mps 706 mmHg 29%
    12:00 +21°C° 0 mm 3 mps 706 mmHg 24%
    13:00 +23°C° 0 mm 2 mps 706 mmHg 23%
    14:00 +24°C° 0 mm 2 mps 705 mmHg 21%
    15:00 +25°C° 0 mm 2 mps 705 mmHg 20%
    16:00 +24°C° 0 mm 2 mps 704 mmHg 23%
    17:00 +24°C° 0 mm 2 mps 704 mmHg 26%
    18:00 +24°C° 0 mm 1 mps 704 mmHg 29%
    19:00 +21°C° 0 mm 1 mps 704 mmHg 32%
    20:00 +19°C° 0 mm 1 mps 704 mmHg 36%
    21:00 +16°C° 0 mm 1 mps 704 mmHg 40%
    22:00 +16°C° 0 mm 1 mps 704 mmHg 42%
    23:00 +15°C° 0 mm 2 mps 704 mmHg 43%

    29 April, Monday

    Time Temperature Precipitation Wind Pressure Humidity
    00:00 +14°C° 0 mm 3 mps 704 mmHg 45%
    01:00 +13°C° 0 mm 3 mps 703 mmHg 49%
    02:00 +13°C° 0 mm 3 mps 703 mmHg 53%
    03:00 +12°C° 0 mm 3 mps 703 mmHg 57%
    04:00 +12°C° 0 mm 3 mps 703 mmHg 62%
    05:00 +11°C° 0 mm 3 mps 703 mmHg 66%
    06:00 +12°C° 0 mm 2 mps 703 mmHg 71%
    07:00 +14°C° 0 mm 2 mps 703 mmHg 65%
    08:00 +15°C° 0 mm 2 mps 703 mmHg 60%
    09:00 +17°C° 0 mm 2 mps 703 mmHg 54%
    10:00 +19°C° 0 mm 2 mps 703 mmHg 48%
    11:00 +21°C° 0 mm 2 mps 703 mmHg 42%
    12:00 +23°C° 0 mm 1 mps 703 mmHg 36%
    13:00 +24°C° 0 mm 1 mps 702 mmHg 33%
    14:00 +25°C° 0 mm 1 mps 702 mmHg 31%
    15:00 +26°C° 0 mm 1 mps 702 mmHg 28%
    16:00 +25°C° 0 mm 1 mps 702 mmHg 30%
    17:00 +25°C° 0 mm 1 mps 701 mmHg 32%
    18:00 +25°C° 0 mm 1 mps 701 mmHg 34%
    19:00 +23°C° 0 mm 1 mps 702 mmHg 37%
    20:00 +21°C° 0 mm 1 mps 702 mmHg 41%
    21:00 +19°C° 0 mm 1 mps 702 mmHg 44%
    22:00 +19°C° 0 mm 1 mps 702 mmHg 45%
    23:00 +18°C° 0 mm 1 mps 702 mmHg 46%

    30 April, Tuesday

    Time Temperature Precipitation Wind Pressure Humidity
    00:00 +16°C° 0 mm 2 mps 702 mmHg 47%
    01:00 +16°C° 0 mm 2 mps 702 mmHg 50%
    02:00 +15°C° 0 mm 2 mps 701 mmHg 53%
    03:00 +15°C° 0 mm 2 mps 701 mmHg 57%
    04:00 +14°C° 0 mm 2 mps 701 mmHg 60%
    05:00 +14°C° 0 mm 2 mps 701 mmHg 63%
    06:00 +14°C° 0 mm 2 mps 701 mmHg 66%
    07:00 +15°C° 0 mm 2 mps 701 mmHg 60%
    08:00 +17°C° 0 mm 2 mps 701 mmHg 55%
    09:00 +19°C° 0 mm 2 mps 701 mmHg 50%
    10:00 +20°C° 0 mm 2 mps 701 mmHg 45%
    11:00 +23°C° 0 mm 1 mps 701 mmHg 40%
    12:00 +24°C° 0 mm 1 mps 701 mmHg 35%
    13:00 +25°C° 0 mm 1 mps 701 mmHg 33%
    14:00 +26°C° 0 mm 1 mps 700 mmHg 31%
    15:00 +26°C° 0 mm 1 mps 700 mmHg 28%
    16:00 +26°C° 0 mm 1 mps 700 mmHg 30%
    17:00 +26°C° 0 mm 1 mps 700 mmHg 32%
    18:00 +25°C° 0 mm 1 mps 700 mmHg 34%
    19:00 +24°C° 0 mm 1 mps 700 mmHg 38%
    20:00 +22°C° 0 mm 1 mps 700 mmHg 42%
    21:00 +20°C° 0 mm 1 mps 700 mmHg 46%
    22:00 +19°C° 0 mm 1 mps 700 mmHg 47%
    23:00 +18°C° 0 mm 2 mps 699 mmHg 48%
    Show more